Regional Weather Roundup
Issued by NWS

Home | Current Version | Previous Version | Graphics & Text | Print | Product List | Glossary On
Versions: 1 2 3 4 5 6 7 8 9 10 11 12 13 14 15 16 17 18 19 20 21 22 23 24 25 26 27 28 29 30 31 32 33 34 35 36 37 38 39 40 41 42 43 44 45 46 47 48 49 50
000
ASUS43 KMKX 221821
RWRWI

WISCONSIN REGIONAL WEATHER ROUNDUP
NATIONAL WEATHER SERVICE MILWAUKEE/SULLIVAN WI
1200 PM CST WED NOV 22 2017

NOTE: "FAIR" INDICATES FEW OR NO CLOUDS BELOW 12,000 FEET WITH NO
SIGNIFICANT WEATHER AND/OR OBSTRUCTIONS TO VISIBILITY.

WIZ001-002-006>008-014>016-023>028-221900-
NORTHWEST WISCONSIN

CITY           SKY/WX    TMP DP  RH WIND       PRES   REMARKS
SUPERIOR ARPT  CLOUDY    23  12  62 SW10      30.19F WCI  13
6HR MIN TEMP:  10; 6HR MAX TEMP:  23;

ASHLAND        CLOUDY    24  11  57 S13       30.21F WCI  12
6HR MIN TEMP:  13; 6HR MAX TEMP:  24;

HAYWARD        CLOUDY    22  11  62 S10       30.20F WCI  11
6HR MIN TEMP:  10; 6HR MAX TEMP:  22;

SIREN          CLOUDY    22  13  66 S9        30.21F WCI  12
6HR MIN TEMP:   6; 6HR MAX TEMP:  22;

CUMBERLAND     MOSUNNY   21  12  68 SW10      30.20F WCI  10
RICE LAKE      MOSUNNY   23  13  66 S8        30.23F WCI  13
6HR MIN TEMP:  11; 6HR MAX TEMP:  23;

CHETEK         MOSUNNY   22  12  64 S9        30.23F WCI  12
6HR MIN TEMP:   9; 6HR MAX TEMP:  23;

LADYSMITH      MOSUNNY   23  12  62 S10       30.23F WCI  12
6HR MIN TEMP:  12; 6HR MAX TEMP:  23;

EAU CLAIRE     CLOUDY    23  10  57 S8        30.25F WCI  14
6HR MIN TEMP:   9; 6HR MAX TEMP:  23;

MENOMONIE      CLOUDY    25  12  57 SW10      30.25F WCI  14
6HR MIN TEMP:  12; 6HR MAX TEMP:  25;

NEW RICHMOND   CLOUDY    23  12  62 S10       30.23F WCI  12
6HR MIN TEMP:  11; 6HR MAX TEMP:  23;

OSCEOLA        MOSUNNY   24  13  65 S7        30.26F WCI  16
6HR MIN TEMP:  11; 6HR MAX TEMP:  24;

$$

WIZ003>005-009-010-017-018-221900-
NORTH CENTRAL WISCONSIN

CITY           SKY/WX    TMP DP  RH WIND       PRES   REMARKS
MANITOWISH WTR MOSUNNY   21  11  64 S9G17     30.15F WCI  11
6HR MIN TEMP:   8; 6HR MAX TEMP:  21;

ARBOR VITAE    CLOUDY    24  14  64 S8        30.16F WCI  15
6HR MIN TEMP:  17; 6HR MAX TEMP:  24;

WOODRUFF       CLOUDY    24  14  64 S8        30.16F WCI  15
6HR MIN TEMP:  17; 6HR MAX TEMP:  24;

RHINELANDER    CLOUDY    23  12  62 SW10      30.19F WCI  12
6HR MIN TEMP:  16; 6HR MAX TEMP:  23;

EAGLE RIVER    CLOUDY    22  11  62 SW8       30.15F WCI  13
6HR MIN TEMP:  17; 6HR MAX TEMP:  22;

LAND O LAKES   MOSUNNY   23  13  65 S9        30.17F WCI  13
6HR MIN TEMP:  17; 6HR MAX TEMP:  23;

PHILLIPS       CLOUDY    22  11  61 S13       30.17F WCI  10
6HR MIN TEMP:  11; 6HR MAX TEMP:  22;

TOMAHAWK       CLOUDY    25  11  55 CALM      30.19F
6HR MIN TEMP:   7; 6HR MAX TEMP:  25;

MEDFORD        SUNNY     22  11  63 SW7       30.20F WCI  13
6HR MIN TEMP:  13; 6HR MAX TEMP:  22;

MERRILL        CLOUDY    26  12  55 SW9       30.21F WCI  16
6HR MIN TEMP:  11; 6HR MAX TEMP:  26;

$$

WIZ029-030-035-036-043>047-221900-
CENTRAL WISCONSIN

CITY           SKY/WX    TMP DP  RH WIND       PRES   REMARKS
WAUSAU         CLOUDY    25  12  58 S7        30.22F WCI  17
6HR MIN TEMP:  15; 6HR MAX TEMP:  25;

MOSINEE        SUNNY     25  12  58 SW8       30.25F WCI  16
MARSHFIELD     CLOUDY    25  11  55 S8        30.22F WCI  16
6HR MIN TEMP:  13; 6HR MAX TEMP:  25;

STEVENS POINT  SUNNY     24  10  54 SW7       30.25F WCI  16
6HR MIN TEMP:   9; 6HR MAX TEMP:  24;

WAUPACA        SUNNY     31  12  45 S7        30.28F WCI  24
6HR MIN TEMP:  16; 6HR MAX TEMP:  31;

WAUTOMA        SUNNY     27  13  55 SW6         N/A  WCI  20
6HR MIN TEMP:  10; 6HR MAX TEMP:  28;

WISC RAPIDS    SUNNY     26  13  57 SW8       30.27F WCI  18
6HR MIN TEMP:  11; 6HR MAX TEMP:  27;

CAMP DOUGLAS   PTSUNNY   28  12  50 CALM      30.27F
$$

WIZ011>013-019>022-031-037>040-048>050-221900-
NORTHEAST WISCONSIN

CITY           SKY/WX    TMP DP  RH WIND       PRES   REMARKS
ANTIGO         CLOUDY    24  12  61 SW8       30.21F WCI  15
6HR MIN TEMP:  15; 6HR MAX TEMP:  24;

SHAWANO        SUNNY     31  13  46 SW5       30.26F WCI  26
6HR MIN TEMP:  23; 6HR MAX TEMP:  31;

OCONTO         CLOUDY    30  14  51 SW8       30.27F WCI  22
6HR MIN TEMP:  24; 6HR MAX TEMP:  30;

STURGEON BAY   CLOUDY    27  16  63 SW6       30.27F WCI  20
6HR MIN TEMP:  25; 6HR MAX TEMP:  28; 6HR PCP: TRACE;

GREEN BAY      MOSUNNY   29  16  58 SW9       30.27F WCI  20
6HR MIN TEMP:  23; 6HR MAX TEMP:  30;

MANITOWOC      SUNNY     28  15  58 SW7       30.29F WCI  21
6HR MIN TEMP:  23; 6HR MAX TEMP:  29;

APPLETON       NOT AVBL
CLINTONVILLE   SUNNY     28  10  47 SW8G16    30.27F WCI  20
OSHKOSH        SUNNY     28  15  58 SW10      30.27F WCI  19
6HR MIN TEMP:  16; 6HR MAX TEMP:  28;

$$

WIZ032>034-041-042-053>061-221900-
SOUTHWEST WISCONSIN

CITY           SKY/WX    TMP DP  RH WIND       PRES   REMARKS
LA CROSSE      MOSUNNY   27  14  58 S7        30.30F WCI  19
6HR MIN TEMP:  15; 6HR MAX TEMP:  27;

SPARTA         SUNNY     27  14  59 S7        30.29F WCI  19
6HR MIN TEMP:   8; 6HR MAX TEMP:  27;

VIROQUA        MOSUNNY   27  17  67 SW9       30.25F WCI  18
6HR MIN TEMP:  14; 6HR MAX TEMP:  26;

BOSCOBEL       SUNNY     30  14  51 SW7       30.32F WCI  23
6HR MIN TEMP:  14; 6HR MAX TEMP:  30;

PRAIRIE DU CHI SUNNY     29  13  52 CALM      30.31F
6HR MIN TEMP:  17; 6HR MAX TEMP:  29;

PLATTEVILLE    SUNNY     29  17  59 SW9       30.32F WCI  21
6HR MIN TEMP:  16; 6HR MAX TEMP:  29;

$$

WIZ056-057-062-063-064-067-068-221900-
SOUTH CENTRAL WISCONSIN

CITY           SKY/WX    TMP DP  RH WIND       PRES   REMARKS
REEDSBURG      SUNNY     28  14  55 S6        30.28F WCI  21
6HR MIN TEMP:  15; 6HR MAX TEMP:  28;

BARABOO/DELLS  SUNNY     28  13  54 SW8       30.28F WCI  20
6HR MIN TEMP:  13; 6HR MAX TEMP:  28;

LONE ROCK      SUNNY     30  14  51 SW7       30.31F WCI  23
6HR MIN TEMP:  11; 6HR MAX TEMP:  30;

MINERAL POINT  SUNNY     32  19  59 S8        30.28F WCI  25
MADISON        MOSUNNY   28  14  55 SW7       30.29F WCI  21
6HR MIN TEMP:  15; 6HR MAX TEMP:  28;

MIDDLETON      SUNNY     32  15  50 SW8       30.29F WCI  24
6HR MIN TEMP:  15; 6HR MAX TEMP:  32;

WATERTOWN      SUNNY     29  15  56 SW9       30.30F WCI  21
6HR MIN TEMP:  13; 6HR MAX TEMP:  29;

MONROE         SUNNY     28  14  54 SW7       30.30F WCI  21
JANESVILLE     SUNNY     30  16  55 W5        30.33F WCI  25
$$

WIZ051-052-058>065-066-070>072-221900-
SOUTHEAST WISCONSIN

CITY           SKY/WX    TMP DP  RH WIND       PRES   REMARKS
MILWAUKEE      MOSUNNY   31  15  52 SW12      30.32F WCI  22
6HR MIN TEMP:  21; 6HR MAX TEMP:  32;

WAUKESHA       SUNNY     28  14  54 W5        30.31F WCI  23
MILWAUKEE/TIMM SUNNY     30  10  43 W9        30.32F WCI  22
RACINE         SUNNY     31  16  54 SW8       30.34F WCI  23
6HR MIN TEMP:  19; 6HR MAX TEMP:  31;

BURLINGTON     SUNNY     33  20  58 SW8       30.32F WCI  26
6HR MIN TEMP:  16; 6HR MAX TEMP:  33;

KENOSHA        SUNNY     31  15  52 W8        30.32F WCI  23
6HR MIN TEMP:  16; 6HR MAX TEMP:  31;

FOND DU LAC    SUNNY     28  13  53 SW10      30.28F WCI  19
6HR MIN TEMP:  15; 6HR MAX TEMP:  29; 6HR PCP: TRACE;

SHEBOYGAN      MIX PCPN  30  15  53 SW5       30.28F WCI  25
6HR MIN TEMP:  16; 6HR MAX TEMP:  30; 6HR PCP: TRACE;

WEST BEND      SUNNY     30  14  51 W7        30.28F WCI  23
JUNEAU         SUNNY     27  14  60 SW10      30.30F WCI  17
6HR MIN TEMP:  15; 6HR MAX TEMP:  27;

$$

LSZ147-162-221900-
LAKE SUPERIOR

STATION/POSITION TIME  TEMP    WIND        PRES    WAVE
                       AIR SEA DIR/SP/G            HT/PER
                 (UTC) (F)     (DEG/KT/KT) (MB)    (FT/S)
DEVILS ISLAND    1800   22     230/ 11/ 16 1023.5F
SAXON HARBOR     1740   23     180/  7/ 13 1022.4F
$$

LMZ867-665-643>646-221900-
LAKE MICHIGAN

STATION/POSITION TIME  TEMP    WIND        PRES    WAVE
                       AIR SEA DIR/SP/G            HT/PER
                 (UTC) (F)     (DEG/KT/KT) (MB)    (FT/S)
N MID LAKE BUOY  1750



USA.gov is the U.S. government's official web portal to all federal, state and local government web resources and services.